| time (UTC) | temp F | wind direction | speed MPH | gust MPH | rain 1hr in | rain 24hr in | rain mn in | humidity % | barometer mb |
| 20260507181507 | 58 | 302 | 1.0 | 6.0 | 0.00 | 0.00 | 0.00 | 41 | 1011.7 |
| 20260507180010 | 58 | 229 | 2.0 | 7.0 | 0.00 | 0.00 | 0.00 | 46 | 1012.0 |
| 20260507174537 | 58 | 282 | 2.0 | 5.0 | 0.00 | 0.00 | 0.00 | 43 | 1012.1 |
| 20260507173023 | 58 | 253 | 1.0 | 10.0 | 0.00 | 0.00 | 0.00 | 41 | 1012.1 |
| 20260507171530 | 59 | 284 | 3.0 | 6.0 | 0.00 | 0.00 | 0.00 | 42 | 1012.2 |
| 20260507170006 | 58 | 323 | 0.0 | 7.0 | 0.00 | 0.00 | 0.00 | 41 | 1012.2 |
| 20260507164513 | 59 | 72 | 1.0 | 5.0 | 0.00 | 0.00 | 0.00 | 44 | 1012.3 |
| 20260507163020 | 59 | 27 | 1.0 | 7.0 | 0.00 | 0.00 | 0.00 | 46 | 1012.4 |
| 20260507161522 | 58 | 86 | 1.0 | 3.0 | 0.00 | 0.00 | 0.00 | 45 | 1012.4 |
| 20260507160024 | 58 | 283 | 2.0 | 6.0 | 0.00 | 0.00 | 0.00 | 40 | 1012.2 |
| 20260507154510 | 57 | 341 | 1.0 | 3.0 | 0.00 | 0.00 | 0.00 | 43 | 1012.2 |
| 20260507153017 | 57 | 15 | 2.0 | 5.0 | 0.00 | 0.00 | 0.00 | 44 | 1012.3 |
| 20260507151518 | 56 | 307 | 3.0 | 8.0 | 0.00 | 0.00 | 0.00 | 40 | 1012.3 |
| 20260507150023 | 56 | 21 | 1.0 | 8.0 | 0.00 | 0.00 | 0.00 | 41 | 1012.4 |
| 20260507144524 | 57 | 242 | 1.0 | 4.0 | 0.00 | 0.00 | 0.00 | 46 | 1012.5 |
| 20260507143011 | 55 | 276 | 2.0 | 7.0 | 0.00 | 0.00 | 0.00 | 48 | 1012.6 |
| 20260507141514 | 54 | 292 | 1.0 | 6.0 | 0.00 | 0.00 | 0.00 | 46 | 1012.7 |
| 20260507140035 | 53 | 324 | 1.0 | 5.0 | 0.00 | 0.00 | 0.00 | 52 | 1012.9 |
| 20260507134524 | 54 | 243 | 2.0 | 6.0 | 0.00 | 0.00 | 0.00 | 51 | 1013.0 |
| 20260507133024 | 54 | 233 | 2.0 | 9.0 | 0.00 | 0.00 | 0.00 | 58 | 1013.1 |
| 20260507131513 | 53 | 302 | 1.0 | 3.0 | 0.00 | 0.00 | 0.00 | 63 | 1013.2 |
| 20260507130015 | 52 | 219 | 0.0 | 1.0 | 0.00 | 0.00 | 0.00 | 67 | 1013.0 |
| 20260507124522 | 49 | 238 | 0.0 | 2.0 | 0.00 | 0.00 | 0.00 | 74 | 1013.1 |
| 20260507123028 | 47 | 264 | 0.0 | 2.0 | 0.00 | 0.00 | 0.00 | 76 | 1013.2 |
| 20260507121526 | 45 | 143 | 0.0 | 2.0 | 0.00 | 0.00 | 0.00 | 81 | 1013.1 |
| 20260507120026 | 43 | 187 | 0.0 | 2.0 | 0.00 | 0.00 | 0.00 | 86 | 1013.1 |
| 20260507114516 | 40 | 265 | 0.0 | 2.0 | 0.00 | 0.00 | 0.00 | 92 | 1013.1 |
| 20260507113055 | 38 | 255 | 0.0 | 1.0 | 0.00 | 0.00 | 0.00 | 95 | 1013.0 |
| 20260507111527 | 37 | 240 | 0.0 | 0.0 | 0.00 | 0.00 | 0.00 | 94 | 1012.9 |
| 20260507110026 | 37 | 240 | 0.0 | 1.0 | 0.00 | 0.00 | 0.00 | 95 | 1012.8 |
| 20260507104519 | 36 | 182 | 0.0 | 1.0 | 0.00 | 0.00 | 0.00 | 94 | 1012.8 |
| 20260507103017 | 36 | 182 | 0.0 | 0.0 | 0.00 | 0.00 | 0.00 | 94 | 1012.6 |
| 20260507101525 | 36 | 182 | 0.0 | 1.0 | 0.00 | 0.00 | 0.00 | 94 | 1012.5 |
| 20260507100039 | 36 | 182 | 0.0 | 0.0 | 0.00 | 0.01 | 0.00 | 94 | 1012.6 |
| 20260507094526 | 36 | 182 | 0.0 | 0.0 | 0.00 | 0.01 | 0.00 | 94 | 1012.4 |
| 20260507093014 | 37 | 182 | 0.0 | 0.0 | 0.00 | 0.02 | 0.00 | 94 | 1012.3 |
| 20260507091521 | 37 | 182 | 0.0 | 0.0 | 0.00 | 0.06 | 0.00 | 94 | 1012.5 |
| 20260507090023 | 37 | 182 | 0.0 | 0.0 | 0.00 | 0.10 | 0.00 | 94 | 1012.6 |
| 20260507084543 | 37 | 182 | 0.0 | 0.0 | 0.00 | 0.14 | 0.00 | 94 | 1012.6 |
| 20260507083019 | 37 | 182 | 0.0 | 0.0 | 0.00 | 0.18 | 0.00 | 94 | 1012.7 |
| 20260507081516 | 37 | 182 | 0.0 | 0.0 | 0.00 | 0.20 | 0.00 | 93 | 1012.8 |
| 20260507080022 | 37 | 182 | 0.0 | 0.0 | 0.00 | 0.20 | 0.00 | 93 | 1012.8 |
| 20260507074506 | 38 | 182 | 0.0 | 0.0 | 0.00 | 0.24 | 0.00 | 93 | 1012.8 |
| 20260507073008 | 38 | 182 | 0.0 | 0.0 | 0.00 | 0.29 | 0.00 | 93 | 1012.8 |
| 20260507071516 | 38 | 182 | 0.0 | 0.0 | 0.00 | 0.33 | 0.00 | 93 | 1012.8 |
| 20260507070021 | 38 | 182 | 0.0 | 0.0 | 0.00 | 0.38 | 0.00 | 92 | 1012.8 |
| 20260507064523 | 39 | 182 | 0.0 | 0.0 | 0.00 | 0.43 | 0.00 | 92 | 1012.9 |
| 20260507063004 | 39 | 182 | 0.0 | 0.0 | 0.00 | 0.47 | 0.00 | 92 | 1013.0 |
| 20260507061510 | 39 | 182 | 0.0 | 0.0 | 0.00 | 0.49 | 0.00 | 92 | 1013.2 |
| 20260507060014 | 39 | 182 | 0.0 | 0.0 | 0.00 | 0.52 | 0.00 | 91 | 1013.3 |
| 20260507054515 | 40 | 182 | 0.0 | 0.0 | 0.00 | 0.58 | 0.00 | 90 | 1013.5 |
| 20260507053026 | 40 | 182 | 0.0 | 0.0 | 0.00 | 0.63 | 0.00 | 88 | 1013.7 |
| 20260507051508 | 41 | 182 | 0.0 | 0.0 | 0.00 | 0.65 | 0.00 | 87 | 1013.6 |
| 20260507050031 | 41 | 182 | 0.0 | 0.0 | 0.00 | 0.68 | 0.00 | 86 | 1013.6 |
| 20260507044522 | 41 | 182 | 0.0 | 0.0 | 0.00 | 0.71 | 0.00 | 84 | 1013.5 |
| 20260507043021 | 42 | 182 | 0.0 | 0.0 | 0.00 | 0.73 | 0.00 | 84 | 1013.6 |
| 20260507041523 | 42 | 182 | 0.0 | 0.0 | 0.00 | 0.76 | 0.00 | 84 | 1013.7 |
| 20260507040007 | 43 | 182 | 0.0 | 0.0 | 0.00 | 0.83 | 0.00 | 81 | 1013.8 |
| 20260507034510 | 44 | 182 | 0.0 | 0.0 | 0.00 | 0.93 | 0.83 | 78 | 1014.0 |
| 20260507033020 | 45 | 182 | 0.0 | 0.0 | 0.00 | 0.96 | 0.83 | 77 | 1014.1 |
| 20260507031530 | 46 | 182 | 0.0 | 0.0 | 0.00 | 1.00 | 0.83 | 76 | 1014.1 |
| 20260507030022 | 47 | 182 | 0.0 | 0.0 | 0.00 | 1.02 | 0.83 | 73 | 1013.9 |
| 20260507024510 | 47 | 182 | 0.0 | 0.0 | 0.00 | 1.04 | 0.83 | 73 | 1013.9 |
| 20260507023013 | 48 | 182 | 0.0 | 0.0 | 0.00 | 1.05 | 0.83 | 75 | 1013.8 |
| 20260507021531 | 48 | 182 | 0.0 | 0.0 | 0.00 | 1.05 | 0.83 | 72 | 1013.8 |
| 20260507020025 | 49 | 182 | 0.0 | 0.0 | 0.00 | 1.08 | 0.83 | 69 | 1013.7 |
| 20260507014524 | 49 | 182 | 0.0 | 1.0 | 0.00 | 1.09 | 0.83 | 65 | 1013.5 |
| 20260507013010 | 49 | 182 | 0.0 | 1.0 | 0.00 | 1.14 | 0.83 | 68 | 1013.3 |
| 20260507011520 | 49 | 257 | 0.0 | 1.0 | 0.00 | 1.14 | 0.83 | 67 | 1013.2 |
| 20260507010029 | 49 | 284 | 0.0 | 0.0 | 0.00 | 1.14 | 0.83 | 70 | 1012.7 |
| 20260507004524 | 50 | 284 | 0.0 | 0.0 | 0.00 | 1.14 | 0.83 | 70 | 1012.7 |
| 20260507003028 | 51 | 284 | 0.0 | 0.0 | 0.00 | 1.14 | 0.83 | 65 | 1012.8 |
| 20260507001512 | 52 | 284 | 0.0 | 0.0 | 0.00 | 1.14 | 0.83 | 67 | 1012.5 |
| 20260507000015 | 52 | 284 | 0.0 | 1.0 | 0.00 | 1.14 | 0.83 | 62 | 1012.5 |
| 20260506234520 | 53 | 284 | 0.0 | 1.0 | 0.00 | 1.14 | 0.83 | 55 | 1012.7 |
| 20260506233003 | 53 | 262 | 0.0 | 1.0 | 0.00 | 1.15 | 0.83 | 56 | 1012.8 |
| 20260506231508 | 53 | 293 | 0.0 | 1.0 | 0.00 | 1.16 | 0.83 | 57 | 1012.8 |
| 20260506230013 | 54 | 243 | 0.0 | 3.0 | 0.00 | 1.20 | 0.83 | 53 | 1012.7 |
| 20260506224518 | 54 | 142 | 0.0 | 1.0 | 0.00 | 1.52 | 0.83 | 55 | 1012.7 |
| 20260506223002 | 55 | 259 | 2.0 | 4.0 | 0.00 | 1.52 | 0.83 | 52 | 1012.6 |
| 20260506221507 | 56 | 267 | 0.0 | 1.0 | 0.00 | 1.52 | 0.83 | 60 | 1012.1 |
| 20260506220014 | 56 | 255 | 0.0 | 2.0 | 0.00 | 1.52 | 0.83 | 53 | 1011.9 |
| 20260506214514 | 56 | 317 | 1.0 | 2.0 | 0.00 | 1.52 | 0.83 | 53 | 1011.9 |
| 20260506213025 | 56 | 274 | 0.0 | 3.0 | 0.00 | 1.52 | 0.83 | 56 | 1011.8 |
| 20260506211502 | 57 | 320 | 1.0 | 5.0 | 0.00 | 1.52 | 0.83 | 54 | 1011.7 |
| 20260506210007 | 57 | 152 | 0.0 | 2.0 | 0.00 | 1.52 | 0.83 | 55 | 1011.5 |
| 20260506204510 | 56 | 257 | 1.0 | 5.0 | 0.00 | 1.52 | 0.83 | 51 | 1011.5 |
| 20260506203023 | 56 | 94 | 1.0 | 5.0 | 0.00 | 1.52 | 0.83 | 55 | 1011.4 |
| 20260506201526 | 56 | 236 | 1.0 | 2.0 | 0.00 | 1.52 | 0.83 | 59 | 1011.5 |
| 20260506200023 | 57 | 283 | 1.0 | 4.0 | 0.00 | 1.52 | 0.83 | 52 | 1011.6 |
| 20260506194525 | 58 | 274 | 1.0 | 5.0 | 0.00 | 1.52 | 0.83 | 57 | 1011.3 |
| 20260506193016 | 58 | 330 | 0.0 | 4.0 | 0.00 | 1.54 | 0.83 | 58 | 1011.1 |
| 20260506191519 | 59 | 317 | 0.0 | 4.0 | 0.00 | 1.54 | 0.83 | 54 | 1011.4 |
| 20260506190019 | 60 | 296 | 1.0 | 6.0 | 0.00 | 1.58 | 0.83 | 51 | 1011.6 |
| 20260506184523 | 61 | 342 | 1.0 | 2.0 | 0.00 | 1.58 | 0.83 | 50 | 1011.3 |
| 20260506183026 | 58 | 131 | 1.0 | 6.0 | 0.00 | 1.58 | 0.83 | 51 | 1011.6 |